User: anonymous   Login
Location: Fort Wayne
(41.1310°N, 85.1290°W)
Time: 07:06:15
(UTC-04:00)
Language:

SL-08 RB Rocket - Orbit

View from above orbital plane
View from above orbital plane
View from above satellite
View from above satellite

Ground track
Ground track

The orbit data is extracted from the following two-line orbital elements,

1 26387U 00033D   17290.83164307  .00000119  00000-0  28911-4 0  9999
2 26387  97.9574 351.8922 0025354 308.9340 176.8384 14.68320199925876
Epoch (UTC): 17 October 2017 19:57:33
Eccentricity: 0.0025354
inclination: 97.9574°
perigee height: 648 km
apogee height: 684 km
right ascension of ascending node: 351.8922°
argument of perigee: 308.9340°
revolutions per day: 14.68320199
mean anomaly at epoch: 176.8384°
orbit number at epoch: 92587

The dashed part of the orbit path shows where the satellite is in the earth's shadow,  

DLR